EW0146 Weather Reports


time (UTC)temp
C
wind
direction
speed
KPH
gust
KPH
rain 1hr
cm
rain 24hr
cm
rain mn
cm
humidity
%
barometer
mb
20260906093012 9 360 16.1 35.4 0.00 0.03 0.00 77 1007.8
20260906091602 8 360 16.1 35.4 0.00 0.03 0.00 76 1007.6
20260906090011 8 360 17.7 37.0 0.00 0.03 0.00 76 1007.4
20260906084512 8 360 17.7 32.2 0.00 0.05 0.00 78 1007.3
20260906083103 8 360 17.7 33.8 0.00 0.05 0.00 77 1007.1
20260906081508 8 360 17.7 35.4 0.00 0.05 0.00 78 1007.0
20260906080013 8 360 20.9 35.4 0.00 0.05 0.00 79 1006.8
20260906074503 8 360 22.5 38.6 0.00 0.05 0.00 78 1006.8
20260906073105 8 360 19.3 38.6 0.00 0.05 0.00 79 1006.6
20260906071610 8 360 14.5 37.0 0.00 0.05 0.00 78 1006.4
20260906070010 8 360 20.9 35.4 0.00 0.05 0.00 78 1006.1
20260906064610 8 360 19.3 38.6 0.00 0.08 0.00 80 1006.0
20260906063001 8 360 22.5 35.4 0.00 0.08 0.00 79 1005.6
20260906061501 8 360 16.1 35.4 0.00 0.08 0.00 80 1005.4
20260906060112 8 360 19.3 40.2 0.00 0.08 0.00 79 1005.3
20260906054601 8 360 17.7 37.0 0.00 0.08 0.00 78 1005.2
20260906053109 8 360 19.3 45.1 0.00 0.08 0.00 77 1005.0
20260906051514 8 360 22.5 40.2 0.00 0.08 0.00 77 1004.8
20260906050004 8 360 16.1 40.2 0.00 0.10 0.00 78 1004.7
20260906044610 8 360 17.7 41.8 0.00 0.10 0.00 78 1004.6
20260906043010 8 360 16.1 38.6 0.00 0.10 0.00 79 1004.5
20260906041610 8 360 17.7 38.6 0.00 0.10 0.00 79 1004.3
20260906040002 8 360 19.3 40.2 0.00 0.10 0.00 79 1004.2
20260906034600 8 360 24.1 41.8 0.00 0.10 0.00 78 1004.0
20260906033101 8 360 16.1 38.6 0.00 0.10 0.00 77 1003.9
20260906031606 9 360 24.1 40.2 0.00 0.10 0.00 77 1003.8
20260906030101 9 360 24.1 41.8 0.00 0.10 0.00 76 1003.6
20260906024501 9 360 19.3 43.5 0.00 0.10 0.00 78 1003.6
20260906023001 9 360 19.3 43.5 0.00 0.10 0.00 79 1003.4
20260906021606 9 360 19.3 35.4 0.00 0.10 0.00 79 1003.2
20260906020111 9 360 22.5 40.2 0.00 0.10 0.00 77 1003.2
20260906014601 10 360 19.3 35.4 0.00 0.13 0.00 77 1002.9
20260906013111 10 360 17.7 41.8 0.00 0.13 0.00 76 1002.8
20260906011610 10 360 19.3 40.2 0.00 0.13 0.00 76 1002.6
20260906010100 10 360 19.3 41.8 0.00 0.13 0.00 77 1002.5
20260906004601 10 346 17.7 41.8 0.00 0.13 0.00 77 1002.5
20260906003105 10 360 14.5 37.0 0.00 0.13 0.00 76 1002.4
20260906001511 10 360 19.3 38.6 0.00 0.13 0.00 77 1002.3
20260905234602 10 333 17.7 35.4 0.00 0.15 0.00 76 1002.0
20260905233002 10 360 14.5 33.8 0.00 0.15 0.00 79 1002.0
20260905231602 10 360 17.7 32.2 0.00 0.15 0.00 79 1001.9
20260905230115 10 360 14.5 32.2 0.00 0.15 0.00 78 1001.8
20260905224511 10 360 17.7 32.2 0.00 0.18 0.00 79 1001.8
20260905223101 10 360 19.3 33.8 0.00 0.18 0.00 79 1001.8
20260905221606 10 360 16.1 32.2 0.00 0.18 0.00 80 1001.7
20260905220002 10 360 16.1 37.0 0.00 0.18 0.00 81 1001.6
20260905214501 10 360 12.9 29.0 0.00 0.18 0.00 81 1001.5
20260905213001 10 360 17.7 32.2 0.00 0.18 0.00 81 1001.5
20260905211502 11 360 17.7 30.6 0.00 0.18 0.00 82 1001.3
20260905210115 11 360 16.1 37.0 0.00 0.18 0.00 82 1001.1
20260905204607 11 360 14.5 33.8 0.00 0.20 0.18 83 1001.1
20260905203012 11 360 12.9 33.8 0.00 0.20 0.18 81 1001.1
20260905201602 11 360 19.3 33.8 0.00 0.20 0.18 81 1000.9
20260905200012 11 360 17.7 35.4 0.00 0.20 0.18 81 1000.8
20260905194502 11 360 16.1 30.6 0.00 0.23 0.18 80 1000.8
20260905193001 11 360 19.3 33.8 0.00 0.23 0.18 81 1000.8
20260905191502 11 360 19.3 38.6 0.00 0.23 0.18 81 1000.7
20260905184502 11 360 20.9 35.4 0.00 0.28 0.18 84 1000.6
20260905183101 11 360 20.9 41.8 0.00 0.28 0.18 85 1000.4
20260905181502 11 360 20.9 46.7 0.00 0.28 0.18 84 1000.2
20260905180010 11 360 20.9 41.8 0.00 0.28 0.18 85 1000.2
20260905174512 11 360 16.1 40.2 0.00 0.36 0.18 85 1000.1
20260905173101 11 360 16.1 38.6 0.00 0.36 0.18 85 1000.0
20260905171519 10 360 17.7 41.8 0.00 0.36 0.18 88 999.7
20260905170012 11 360 19.3 37.0 0.00 0.36 0.18 85 999.6
20260905164501 11 360 20.9 40.2 0.00 0.46 0.18 85 999.4
20260905163103 11 360 19.3 40.2 0.00 0.46 0.18 85 999.4
20260905161512 11 360 20.9 38.6 0.00 0.46 0.18 86 999.1
20260905160136 11 360 20.9 43.5 0.00 0.46 0.18 86 999.1
20260905154603 10 360 19.3 33.8 0.00 0.56 0.18 86 998.8
20260905153103 10 360 17.7 33.8 0.00 0.56 0.18 89 998.8
20260905151505 10 360 16.1 38.6 0.00 0.56 0.18 89 998.7
20260905150002 10 360 16.1 33.8 0.00 0.66 0.18 89 998.6
20260905144513 10 360 20.9 41.8 0.00 0.66 0.18 88 998.4
20260905143002 10 360 16.1 41.8 0.00 0.66 0.18 88 998.3
20260905141502 10 360 19.3 35.4 0.00 0.66 0.18 88 998.2
20260905140002 10 360 24.1 46.7 0.00 0.79 0.18 88 998.0
20260905134503 10 360 25.7 41.8 0.00 0.79 0.18 87 997.9
20260905133002 10 360 20.9 38.6 0.03 0.79 0.18 87 997.8
20260905131606 10 360 20.9 40.2 0.03 0.79 0.18 87 997.7
20260905130012 10 360 14.5 37.0 0.03 0.79 0.18 87 997.6
20260905124602 10 360 20.9 41.8 0.03 0.94 0.18 87 997.5
20260905123103 10 360 19.3 41.8 0.00 0.91 0.15 88 997.5
20260905121512 10 360 17.7 38.6 0.00 0.91 0.15 87 997.3
20260905120010 11 360 17.7 37.0 0.00 0.91 0.15 87 997.2
20260905114512 10 360 19.3 40.2 0.00 0.99 0.15 88 997.0
20260905113104 10 360 20.9 37.0 0.00 0.99 0.15 89 996.8
20260905111504 10 360 22.5 37.0 0.00 0.99 0.15 89 996.7
20260905110002 10 360 24.1 38.6 0.00 1.12 0.15 90 996.4
20260905104601 10 360 25.7 43.5 0.00 1.12 0.15 91 996.2
20260905103103 10 360 17.7 35.4 0.00 1.12 0.15 92 996.0
20260905101502 10 360 20.9 38.6 0.00 1.12 0.15 92 995.8
20260905100002 10 360 24.1 43.5 0.00 1.27 0.15 91 995.7
20260905094603 11 360 20.9 45.1 0.00 1.27 0.15 90 995.6